Location: Caltech
(34.1382°N, 118.1253°W)
Time: 18:22:44
(UTC-08:00)

Cosmos 1626 - Visible Passes

Search period start: 25 January 2015 00:00
Search period end: 04 February 2015 00:00
Orbit: 512 x 514 km, 82.5° (Epoch: 24 January)

Date Brightness Start Highest point End Pass type
(mag) Time Alt. Az. Time Alt. Az. Time Alt. Az.
25 Jan 2.8 05:42:58 10° N 05:46:44 59° E 05:50:29 10° SSE visible
25 Jan 3.2 17:53:49 10° SSE 17:56:57 25° E 18:00:09 10° NE visible
25 Jan 5.2 19:30:18 10° WSW 19:32:41 15° WNW 19:34:56 10° NW visible
26 Jan 3.3 05:27:14 10° N 05:30:55 45° E 05:34:34 10° SSE visible
26 Jan 3.6 17:38:24 10° SE 17:41:10 20° E 17:44:03 10° NE visible
26 Jan 4.9 19:13:57 10° SW 19:16:48 19° WNW 19:19:33 10° NNW visible
27 Jan 3.8 05:11:33 10° NNE 05:15:04 35° E 05:18:35 10° SSE visible
27 Jan 4.5 18:57:44 10° SW 19:00:54 24° WNW 19:04:02 10° NNW visible
28 Jan 4.2 04:55:55 10° NNE 04:59:12 27° ENE 05:02:31 10° SE visible
28 Jan 4.1 18:41:37 10° SW 18:45:02 30° WNW 18:48:26 10° NNW visible
29 Jan 4.6 04:40:21 10° NNE 04:43:19 22° ENE 04:46:21 10° SE visible
29 Jan 3.7 06:16:16 10° NW 06:18:53 17° W 06:21:21 10° SW visible
29 Jan 3.7 18:25:35 10° SSW 18:29:10 39° W 18:32:46 10° N visible
30 Jan 5.0 04:25:01 11° NE 04:27:25 17° ENE 04:30:05 10° ESE visible
30 Jan 3.4 06:00:04 10° NW 06:03:05 22° W 06:05:59 10° SW visible
30 Jan 3.1 18:09:35 10° SSW 18:13:18 50° W 18:17:02 10° N visible
31 Jan 5.2 04:10:37 13° ENE 04:11:29 14° ENE 04:13:37 10° ESE visible
31 Jan 3.1 05:45:40 20° NW 05:47:17 28° W 05:50:30 10° SSW visible
31 Jan 2.6 17:53:40 10° SSW 17:57:27 67° W 18:01:16 10° N visible
01 Feb 5.6 03:56:17 11° E 03:56:17 11° E 03:56:45 10° E visible
01 Feb 2.7 05:31:19 35° W 05:31:28 35° W 05:34:56 10° SSW visible
02 Feb 3.2 05:17:01 31° SW 05:17:01 31° SW 05:19:17 10° SSW visible
03 Feb 4.3 05:02:43 16° S 05:02:43 16° S 05:03:33 10° S visible
